Regional Weather Roundup
Issued by NWS

Home | Current Version | Previous Version | Graphics & Text | Print | Product List | Glossary Off
Versions: 1 2 3 4 5 6 7 8 9 10 11 12 13 14 15 16 17 18 19 20 21 22 23 24 25 26 27 28 29 30 31 32 33 34 35 36 37 38 39 40 41 42 43 44 45 46 47 48 49 50

000
ASUS43 KDMX 310307
RWRIA

WEATHER ROUNDUP FOR IOWA
NATIONAL WEATHER SERVICE DES MOINES IA
900 PM CST FRI JAN 30 2015

NOTE: "FAIR" INDICATES FEW OR NO CLOUDS BELOW 12,000 FEET WITH NO
SIGNIFICANT WEATHER AND/OR OBSTRUCTIONS TO VISIBILITY.

* - THESE STATIONS ARE NOT NWS STATIONS...THUS NOT UNDER NWS
QUALITY CONTROL.  THEY ALSO DO NOT REPORT WEATHER SUCH
AS PRECIPITATION OR FOG.

IAZ001>003-012>014-020>022-031>034-043>046-310400-
   NORTHWEST IOWA

CITY           SKY/WX    TMP DP  RH WIND       PRES   REMARKS
CARROLL *      CLEAR     28  23  80 S10       30.25F WCI  19
CHEROKEE *     CLEAR     29  26  88 S6        30.24R WCI  23
DENISON *      PTCLDY    30  25  80 S15G21    30.23F WCI  19
LE MARS *      CLEAR     32  27  80 S8        30.22F WCI  25
ORANGE CITY *  CLEAR     28  25  86 S7        30.20F WCI  21
SHELDON *      CLEAR     30  28  93 S13       30.18F WCI  20
SIOUX CITY     CLEAR     31  25  78 SE8       30.23F WCI  23
SPENCER          N/A     30  24  78 S13       30.21S WCI  20
STORM LAKE *   CLEAR     28  25  86 SW15      30.23R WCI  17
$$

IAZ055>058-069>071-079>083-090>094-310400-
   SOUTHWEST IOWA

CITY           SKY/WX    TMP DP  RH WIND       PRES   REMARKS
ATLANTIC *     CLOUDY    32  21  64 S13       30.29F WCI  22
AUDUBON *      MOCLDY    30  21  69 S14       30.27F WCI  20
CLARINDA *     CLOUDY    28  19  69 S6        30.34F WCI  22
COUNCIL BLFS * CLOUDY    32  25  74 S7        30.27F WCI  26
CRESTON *      CLOUDY    28  19  69 S10       30.31F WCI  19
HARLAN  *      CLOUDY    32  25  74 S13       30.31F WCI  22
LAMONI         CLOUDY    28  16  60 S8        30.33F WCI  20
RED OAK *      CLOUDY    32  21  64 S8        30.32S WCI  25
SHENANDOAH *   CLOUDY    30  21  69 S10       30.33S WCI  21
$$

IAZ047>049-059>061-072>074-084-310400-
   CENTRAL IOWA

CITY           SKY/WX    TMP DP  RH WIND       PRES   REMARKS
AMES           CLEAR     26  16  65 S8        30.29F WCI  18
ANKENY *       CLEAR     28  16  59 S8        30.31F WCI  20
CHARITON *     CLOUDY    28  19  69 S10       30.32F WCI  19
DES MOINES     PTCLDY    29  15  56 S9        30.31F WCI  20
GRINNELL*      CLEAR     26  18  71 S7        30.31F WCI  18
KNOXVILLE *    CLEAR     28  16  59 S8        30.32F WCI  20
MARSHALLTOWN   CLEAR     25  15  66 S7        30.29F WCI  17
PELLA *        PTCLDY    27  17  68 S7        30.34F WCI  19
PERRY *          N/A     28  22  77 S10       30.28F WCI  19
$$

IAZ004>006-015-016-023>025-035-036-310400-
   NORTH CENTRAL IOWA

CITY           SKY/WX    TMP DP  RH WIND       PRES   REMARKS
ALGONA *       CLEAR     28  25  86 S13       30.23F WCI  18
CLARION *      CLEAR     27  21  80 S14       30.25S WCI  15
ESTHERVILLE    CLEAR     29  23  78 SW15G24   30.18F WCI  18
FORT DODGE *   CLEAR     28  18  64 S10       30.26S WCI  19
MASON CITY     CLEAR     23  18  81 S9        30.25F WCI  13
FOREST CITY *    N/A     28  19  69 S10       30.22F WCI  19
IOWA FALLS *     N/A     26  19  77 S8        30.28R WCI  17
$$

IAZ007>011-017>019-026>030-037>042-050>054-066-310400-
   NORTHEAST IOWA

CITY           SKY/WX    TMP DP  RH WIND       PRES   REMARKS
CEDAR RAPIDS   CLEAR     22  15  75 S6        30.32F WCI  14
CHARLES CITY * CLEAR     23  16  74 S12       30.27F WCI  12
CLINTON *      CLEAR     21  14  73 S6        30.39F WCI  14
DECORAH *      CLEAR     23  12  63 S7        30.26F WCI  15
DUBUQUE          N/A     19  13  77 S7        30.32F WCI  10
MONTICELLO *   CLEAR     21  18  86 S7        30.33F WCI  13
OELWEIN *      CLEAR     21  16  79 S9        30.30F WCI  11
WATERLOO       CLEAR     24  14  65 S7        30.29F WCI  16
$$

IAZ064-065-067-068-078-310400-
   EAST CENTRAL IOWA

CITY           SKY/WX    TMP DP  RH WIND       PRES   REMARKS
DAVENPORT      CLEAR     20  14  77 S7        30.37F WCI  11
IOWA CITY      CLEAR     22  17  81 CALM      30.36F
MT. PLEASANT * CLEAR     25  19  77 S5        30.37F WCI  19
MUSCATINE *    CLEAR     25  23  93 CALM      30.38F
QUAD CITIES    CLEAR     20  15  81 CALM      30.37F
$$

IAZ062-063-075>077-085>089-095>099-310400-
   SOUTHEAST IOWA

CITY           SKY/WX    TMP DP  RH WIND       PRES   REMARKS
BURLINGTON     CLEAR     27  19  72 S7        30.37F WCI  19
FAIRFIELD *    CLEAR     27  18  69 S7        30.36S WCI  19
FORT MADISON * CLEAR     27  19  74 S5        30.38F WCI  21
KEOKUK *       CLEAR     28  18  64 S6        30.38F WCI  22
OSKALOOSA *      N/A     24  18  78 S10       30.34F WCI  13
CENTERVILLE *    N/A     27  19  74 S8        30.36F WCI  18
OTTUMWA        CLEAR     25  16  68 S7        30.34F WCI  17
WASHINGTON *   CLEAR     23  19  86 S7        30.35F WCI  15
$$

ABBREVIATIONS USED IN REMARKS
   TC - TEMPERATURES IN CELSIUS
  WCI - WIND CHILL INDEX
   HX - HEAT INDEX
  VSB - VISIBILITY
$$



USA.gov is the U.S. government's official web portal to all federal, state and local government web resources and services.